星链-1110 (STARLINK-1110 )

导读 | 星芒AI

STARLINK-1110 是 SpaceX Starlink 项目中的一颗低轨通信卫星,属于第 11 批发射的 Starlink 卫星群。该卫星运行在约 550 公里的高度,旨在为全球用户提供高速互联网服务。它采用先进的相控阵天线和激光通信技术,以提升网络连接速度和稳定性。作为 Starlink 卫星群的一部分,STARLINK-1110 有助于扩大覆盖范围,特别是在偏远和网络基础设施薄弱的地区。该卫星由 SpaceX 自动化生产线制造,具备自主变轨和避障能力,提高了运行安全性和效率。

基本信息
目录编号:
44946
目录名称:
STARLINK-1110
国际标识:
2020-001AJ
轨道中心:
EARTH
卫星名称:
星链-1110
卫星全名:
星链-1110 (STARLINK-1110 )
卫星状态:
已陨落 最后检测时间 2024-04-11
发射日期:
2020-01-07 UTC
国别 :
美国 (US)
星等 :
--
轨道信息
数据来源 国际轨道数据
星历时间: 2024-04-10T23:19:22+0800
轨道信息已过期572天
半长轴: 6593.788km
偏心率: 0.0002378
轨道倾角: 52.992°
近地点辐角 194.887°
升交点赤经 47.458°
平近点角 193.885°
近地点: 214.084km
远地点: 217.222km
周期: 88.810分钟
每日圈数: 16.214378
详细信息
固有亮度:
5
最大亮度:
2.5
卫星平台:
Starlink V1.0
覆盖范围:
全球
运营商:
太空探索技术公司
运营商所在国:
美国
制造商(研发单位):
太空探索技术公司
制造商所在国:
美国
使用方式:
暂无
卫星简介
星链(Starlink)计划是由太空探索技术公司(SpaceX)提出的一个巨型低轨卫星互联网星座项目,计划在2019年至2024年间在太空搭建由约1.2万颗卫星组成的“星链”网络,其中1584颗将部署在地球上空550千米处的近地轨道,并从2020年开始工作。该卫星已陨落。